Emmonak, AK

12:26 AM AKST on February 24, 2017 (GMT -0900)
Emmonak

Weather History for PAEM - February, 2013

Change the Weather History Date:

Monday, February 4, 2013

  Actual Average Record
Temperature  
Mean Temperature 9 °F -  
Max Temperature 17 °F 11 °F 35 °F (1997)
Min Temperature 3 °F 1 °F -29 °F (1999)
Degree Days  
Heating Degree Days 56    
Moisture  
Dew Point 4 °F    
Average Humidity 84    
Maximum Humidity 92    
Minimum Humidity 73    
Precipitation  
Precipitation 0.00 in - - ()
Sea Level Pressure  
Sea Level Pressure 29.50 in    
Wind  
Wind Speed 8 mph (NNE)    
Max Wind Speed 12 mph    
Max Gust Speed -    
Visibility 10 miles    
Events      
Averages and records for this station are not official NWS values.
T = Trace of Precipitation, MM = Missing Value Source: NWS Daily Summary

Daily Weather History Graph

Daily Weather History Graph

Search for Another Location

Airport or City:

Trip Planner

Search our weather history database for the weather conditions in past years. The results will help you decide how hot, cold, wet, or windy it might be!

Date:

Astronomy

Feb. 04, 2013 Rise Set
Actual Time 10:18 AM AKST 6:06 PM AKST
Civil Twilight 9:26 AM AKST 6:58 PM AKST
Nautical Twilight 8:31 AM AKST 7:53 PM AKST
Astronomical Twilight 7:38 AM AKST 8:46 PM AKST
Moon 5:42 AM AKST (2/4) 12:03 PM AKST (2/4)
Length of Visible Light 9h 31m
Length of Day
7h 48m
Waning Crescent, 35% of the Moon is Illuminated
Feb 4
Waning Crescent
Feb 9
New
Feb 17
First Quarter
Feb 25
Full
Mar 4
Last Quarter

Hourly Weather History & Observations

Time (AKST) Temp. Windchill Dew Point Humidity Pressure Visibility Wind Dir Wind Speed Gust Speed Precip Events Conditions
12:16 AM 14.0 °F 2.0 °F 10.4 °F 86% 29.48 in 10.0 mi North 9.2 mph - N/A   Clear
1:56 AM 12.2 °F -1.0 °F 8.6 °F 85% 29.48 in 10.0 mi NE 10.4 mph - N/A   Clear
2:16 AM 12.2 °F -1.8 °F 8.6 °F 85% 29.48 in 10.0 mi NNE 11.5 mph - N/A   Clear
2:36 AM 12.2 °F -0.2 °F 8.6 °F 85% 29.48 in 10.0 mi NNE 9.2 mph - N/A   Clear
2:56 AM 10.4 °F -4.1 °F 6.8 °F 85% 29.47 in 10.0 mi NNE 11.5 mph - N/A   Clear
3:16 AM 12.2 °F -1.0 °F 8.6 °F 85% 29.48 in 10.0 mi NNE 10.4 mph - N/A   Clear
3:36 AM 12.2 °F -0.2 °F 8.6 °F 85% 29.48 in 10.0 mi NE 9.2 mph - N/A   Clear
3:56 AM 10.4 °F -0.4 °F 6.8 °F 85% 29.49 in 10.0 mi NNE 6.9 mph - N/A   Clear
4:16 AM 10.4 °F 2.2 °F 3.2 °F 73% 29.49 in 10.0 mi North 4.6 mph - N/A   Clear
4:36 AM 8.6 °F 0.1 °F 5.0 °F 85% 29.49 in 10.0 mi North 4.6 mph - N/A   Clear
4:56 AM 8.6 °F 0.1 °F 5.0 °F 85% 29.49 in 10.0 mi NW 4.6 mph - N/A   Clear
5:16 AM 8.6 °F 0.1 °F 5.0 °F 85% 29.49 in 10.0 mi North 4.6 mph - N/A   Clear
5:36 AM 6.8 °F -3.5 °F 1.4 °F 79% 29.49 in 10.0 mi NNE 5.8 mph - N/A   Clear
5:56 AM 5.0 °F -2.1 °F 1.4 °F 85% 29.49 in 10.0 mi North 3.5 mph - N/A   Clear
6:16 AM 3.2 °F -7.8 °F -0.4 °F 85% 29.49 in 10.0 mi North 5.8 mph - N/A   Clear
6:36 AM 6.8 °F -2.0 °F 1.4 °F 79% 29.49 in 10.0 mi North 4.6 mph - N/A   Clear
6:56 AM 3.2 °F -9.1 °F -2.2 °F 78% 29.49 in 10.0 mi NNW 6.9 mph - N/A   Clear
7:16 AM 3.2 °F -7.8 °F -0.4 °F 85% 29.50 in 10.0 mi North 5.8 mph - N/A   Clear
7:36 AM 3.2 °F -7.8 °F 1.4 °F 92% 29.50 in 10.0 mi North 5.8 mph - N/A   Clear
7:56 AM 3.2 °F -9.1 °F -0.4 °F 85% 29.50 in 10.0 mi North 6.9 mph - N/A   Clear
8:16 AM 3.2 °F -6.2 °F -0.4 °F 85% 29.50 in 10.0 mi North 4.6 mph - N/A   Clear
8:36 AM 3.2 °F -7.8 °F -0.4 °F 85% 29.51 in 10.0 mi North 5.8 mph - N/A   Clear
8:56 AM 3.2 °F -7.8 °F -0.4 °F 85% 29.50 in 10.0 mi North 5.8 mph - N/A   Clear
9:16 AM 5.0 °F - 1.4 °F 85% 29.51 in 10.0 mi Calm Calm - N/A   Clear
9:36 AM 5.0 °F -2.1 °F 1.4 °F 85% 29.51 in 10.0 mi North 3.5 mph - N/A   Clear
9:56 AM 6.8 °F -3.5 °F 1.4 °F 79% 29.51 in 10.0 mi North 5.8 mph - N/A   Clear
10:16 AM 5.0 °F -5.6 °F 1.4 °F 85% 29.51 in 10.0 mi North 5.8 mph - N/A   Clear
10:36 AM 6.8 °F -3.5 °F 3.2 °F 85% 29.51 in 10.0 mi NNE 5.8 mph - N/A   Clear
10:56 AM 5.0 °F -4.1 °F 1.4 °F 85% 29.51 in 10.0 mi NNE 4.6 mph - N/A   Clear
11:16 AM 5.0 °F -5.6 °F 1.4 °F 85% 29.51 in 10.0 mi NNE 5.8 mph - N/A   Clear
11:36 AM 6.8 °F -5.9 °F 3.2 °F 85% 29.51 in 7.0 mi NE 8.1 mph - N/A   Clear
11:56 AM 6.8 °F -5.9 °F 3.2 °F 85% 29.51 in 10.0 mi NE 8.1 mph - N/A   Partly Cloudy
6:23 PM 15.8 °F 5.1 °F 10.4 °F 79% 29.50 in 4.0 mi NE 8.1 mph - N/A   Overcast
9:13 PM 15.8 °F 4.2 °F 12.2 °F 86% 29.50 in 10.0 mi NNE 9.2 mph - N/A   Overcast
10:36 PM 17.6 °F 7.3 °F 14.0 °F 86% 29.50 in 10.0 mi NE 8.1 mph - N/A   Overcast